Regional Weather Roundup
Issued by NWS Northern Indiana

Home | Current Version | Previous Version | Text Only | Print | Product List | Glossary On
Versions: 1 2 3 4 5 6 7 8 9 10 11 12 13 14 15 16 17 18 19 20 21 22 23 24 25 26 27 28 29 30 31 32 33 34 35 36 37 38 39 40 41 42 43 44 45 46 47 48 49 50
000
ASUS43 KIWX 210810
RWRIWX

KIWX WEATHER ROUNDUP
NATIONAL WEATHER SERVICE NORTHERN INDIANA
300 AM EST SAT JAN 21 2017

NOTE: "FAIR" INDICATES FEW OR NO CLOUDS BELOW 12,000 FEET WITH NO
SIGNIFICANT WEATHER AND/OR OBSTRUCTIONS TO VISIBILITY.

* THESE STATIONS ARE NOT UNDER NWS QUALITY CONTROL. THEY ALSO MAY NOT
  REPORT WEATHER SUCH AS PRECIPITATION OR FOG.

INZ001>027-210900-
NORTHERN INDIANA

CITY           SKY/WX    TMP DP  RH WIND       PRES   REMARKS
GARY*          CLOUDY    50  48  92 S6        29.62S FOG
VALPARAISO     PTCLDY    49  48  97 SE6       29.62F FOG
LAPORTE*       CLOUDY    48  47  96 S6        29.65R FOG
KNOX*          CLOUDY    50  36  57 S10       29.63S
SOUTH BEND     CLOUDY    48  47  96 S7        29.67R
GOSHEN         CLOUDY    49  45  86 S7        29.67R
ROCHESTER*     CLOUDY    50  50 100 S5        29.66S
WARSAW*        CLOUDY    50  45  81 S3        29.67R
FORT WAYNE     CLOUDY    51  47  86 S9        29.71R
PERU/GRISSOM   CLOUDY    51  51 100 S8        29.66R
MARION*        CLOUDY    50  46  87 S7        29.70S

$$
INZ028>050-210900-
CENTRAL INDIANA

CITY           SKY/WX    TMP DP  RH WIND       PRES   REMARKS
LAFAYETTE      MOCLDY    52  50  93 S7        29.65S
KOKOMO*        CLOUDY    51  49  92 S12       29.69R
MUNCIE*        MOCLDY    54  48  80 S8        29.70S
INDIANAPOLIS   MOCLDY    50  48  93 SE8       29.69R

$$
MIZ043>046-050>051-056>058-064>065-071>073-077>080-210900-
SOUTHWEST LOWER MICHIGAN

CITY           SKY/WX    TMP DP  RH WIND       PRES   REMARKS
BATTLE CREEK   CLOUDY    45  45 100 SE8       29.68S
BENTON HARBOR  CLOUDY    49  46  90 S9        29.63F
COLDWATER*     CLOUDY    46  46 100 SE9       29.68F FOG
HILLSDALE*     CLOUDY    43  43 100 SE6       29.69F FOG
HOLLAND        LGT RAIN  41  40  96 NE3       29.65S
GRAND RAPIDS   CLOUDY    38  36  92 E6        29.67S FOG
KALAMAZOO      CLOUDY    46  44  93 S5        29.67R FOG
STURGIS*       CLOUDY    47  46  97 SE9       29.67S FOG
THREE RIVERS*  CLOUDY    47  47 100 S5        29.67S FOG

$$
OHZ001>008-015>018-024>025-210900-
NORTHWEST OHIO

CITY           SKY/WX    TMP DP  RH WIND       PRES   REMARKS
DEFIANCE       CLOUDY    49  45  86 S6        29.71S
FINDLAY        CLOUDY    51  45  79 SE10      29.72S
TOLEDO EXPRESS CLOUDY    45  45 100 SE3       29.72S FOG
TOLEDO METCALF CLOUDY    47  47 100 SE6       29.74S
LIMA           CLOUDY    50  48  93 SE9       29.73R

$$
AND FOR LAKE MICHIGAN COASTAL AND OPEN LAKE BUOY OBSERVATIONS

STATION/POSITION TEMP    WIND        PRES    VSBY  WAVE
                 AIR SEA DIR/SP/G                  HT/PER
                 (F)     (DEG/KT/KT) (MB)    (MI)  (FT/S)
CALUMET HARBOR    48     170/  4/  7 1002.3R
MICHIGAN CITY     50     130/ 14/ 16   N/A
BURNS HARBOR      50     180/ 12/ 16 1003.7S

$$
&&




USA.gov is the U.S. government's official web portal to all federal, state and local government web resources and services.